Find Starlink 30758

NORAD ID: 58133 Int'l Des: 2023-162 Owner: SPXS Country: US Constellation: starlink operational
LEOCIRCULAR

現在のビュー

3D地球を読み込み中...

About Starlink 30758

Starlink 30758 (NORAD 58133) is a starlink constellation satellite (v2 mini) launched Oct 22, 2023 by SPXS of US. It operates in LEO, CIRCULAR orbit with a mass of 730.00 kg.

次回通過

Passes for default location (London). Set your location on the main map for personalized predictions.

高度履歴

Loading altitude history...

軌道要素

1 58133U 23162R 26263.26825056 -.00000121 00000-0 51414-5 0 9992
2 58133 42.9989 110.3539 0001392 264.8465 95.2228 15.27574903162106
Epoch: Sep 20, 2026 • Age: 17 hours

現在のステータス

高度 490.8 km
遠地点 / 近地点 N/A
速度 7.62 km/s
衛星直下点 -31.12°S, 74.1°E
打ち上げ日 Oct 22, 2023
運用期間 2.9 years
タイプ internet

技術仕様

分類 Payload
質量 730.00 kg
乾燥質量 700.00 kg
長さ 0.30 m
スパン 29.00 m
形状 ? Box + pan
製造者 SPXS
バスタイプ Starlink V2M
フェーズステータス In Orbit
所有者/国 SPXS/US

Most Searched